Home   Weather   Missoula   Past weeks
Flag for USA

Past Weather in Missoula, Montana, USA — Yesterday and Last 2 Weeks

Now
66 °F

Passing clouds.


Feels Like: 66 °F
Forecast: 69 / 52 °F
Wind: 17 mph from Northwest

Location: Missoula International Airport

Current Time: Jun 19, 2019 at 1:07:20 pm

Latest Report: Jun 19, 2019 at 11:53 am


Visibility: 10 mi

Pressure: 29.85 "Hg (26.64 "Hg at 971m altitude)

Humidity: 29%

Dew Point: 33 °F

Location of MissoulaLocation

Past Weather in Missoula — Graph

°F

Missoula Temperature Yesterday

Maximum temperature yesterday: 81 °F (at 5:53 pm)
Minimum temperature yesterday: 51 °F (at 1:53 am)
Average temperature yesterday: 66 °F

High & Low Weather Summary for the Past Weeks

 TemperatureHumidityPressure
High86 °F (Jun 12, 3:53 pm)93% (Jun 7, 6:03 am)30.50 "Hg (Jun 7, 6:03 am)
Low41 °F (Jun 8, 4:53 am)16% (Jun 4, 5:53 pm)29.73 "Hg (Jun 13, 7:53 pm)
Average62 °F53%30.00 "Hg
* Reported Jun 4 10:53 am — Jun 19 10:53 am, Missoula. Weather by CustomWeather, © 2019

Note: Actual official high and low records may vary slightly from our data, if they occured in-between our weather recording intervals... More about our weather records

Advertising

Missoula Weather History for the Previous 24 Hours

Scroll right to see more
 ConditionsComfort  
Time TempWeatherWind HumidityBarometerVisibility
10:53 am
Wed, Jun 19
65 °FPartly sunny.15 mph33%29.85 "Hg10 mi
9:53 am66 °FPassing clouds.17 mph29%29.86 "Hg10 mi
8:53 am63 °FScattered clouds.9 mph41%29.85 "Hg10 mi
7:53 am61 °FPassing clouds.8 mph48%29.85 "Hg10 mi
6:53 am53 °FMostly cloudy.5 mph74%29.84 "Hg10 mi
5:53 am50 °FSunny.5 mph80%29.84 "Hg10 mi
4:53 am51 °FClear.5 mph74%29.85 "Hg10 mi
3:53 am56 °FClear.No wind62%29.85 "Hg10 mi
2:53 am54 °FClear.5 mph67%29.87 "Hg10 mi
1:53 am57 °FClear.No wind62%29.88 "Hg10 mi
12:53 am57 °FClear.No wind62%29.90 "Hg10 mi
11:53 pm
Tue, Jun 18
60 °FClear.5 mph58%29.90 "Hg10 mi
10:53 pm65 °FPassing clouds.5 mph45%29.91 "Hg10 mi
9:53 pm65 °FClear.5 mph44%29.92 "Hg10 mi
8:53 pm73 °FSunny.13 mph33%29.90 "Hg10 mi
7:53 pm76 °FScattered clouds.13 mph31%29.89 "Hg10 mi
6:53 pm79 °FPassing clouds.15 mph27%29.88 "Hg10 mi
5:53 pm81 °FSunny.14 mph26%29.88 "Hg10 mi
4:53 pm79 °FScattered clouds.15 mph28%29.88 "Hg10 mi
3:53 pm78 °FPartly sunny.12 mph29%29.90 "Hg10 mi
2:53 pm80 °FPartly sunny.15 mph27%29.90 "Hg10 mi
1:53 pm77 °FScattered clouds.7 mph32%29.92 "Hg10 mi
Weather by CustomWeather, © 2019

See weather overview